KLM32B EHAM-LPMA

Flight info

Callsign KLM32B
Flight time N/A
Altitude 36000
Route IDRID L980 LOGAN DCT SAM/N0444F350 M195 LORKU DCT EBOMO DCT COQUE DCT KORUL DCT DEMOS/N0445F370 DCT ASMAR DCT LIDRO
Aircraft A320/M-SDE3FGHIRWY/LB1

Departure

Time 2026-04-27 07:47
Airport Amsterdam Airport Schiphol (EHAM)

Arrival

Time N/A
Airport Cristiano Ronaldo International Airport (LPMA)
Time Latitude Longitude Altitude Speed Heading
2026-04-27 07:13 52.30911 4.76712 -1 ft 0 kts 183°
2026-04-27 07:35 52.30922 4.76713 -1 ft 4 kts 182°
2026-04-27 07:35 52.30949 4.76715 -1 ft 4 kts 186°
2026-04-27 07:36 52.30975 4.76725 -1 ft 4 kts 210°
2026-04-27 07:36 52.30993 4.76744 -1 ft 4 kts 225°
2026-04-27 07:36 52.31001 4.76770 -1 ft 4 kts 250°
2026-04-27 07:36 52.31015 4.76796 -1 ft 1 kts 213°
2026-04-27 07:37 52.31027 4.76809 -1 ft 4 kts 212°
2026-04-27 07:37 52.31057 4.76839 -1 ft 4 kts 216°
2026-04-27 07:37 52.31076 4.76868 -1 ft 2 kts 235°
2026-04-27 07:37 52.31085 4.76889 -1 ft 4 kts 251°
2026-04-27 07:38 52.31085 4.76944 -1 ft 3 kts 273°
2026-04-27 07:38 52.31084 4.76980 -1 ft 4 kts 273°
2026-04-27 07:38 52.31082 4.77024 -1 ft 4 kts 273°
2026-04-27 07:38 52.31081 4.77049 -1 ft 0 kts 274°
2026-04-27 07:40 52.31082 4.77039 -1 ft 5 kts 274°
2026-04-27 07:41 52.31091 4.76971 -1 ft 5 kts 306°
2026-04-27 07:41 52.31114 4.76968 -1 ft 3 kts 353°
2026-04-27 07:41 52.31179 4.76976 -1 ft 18 kts 21°
2026-04-27 07:41 52.31291 4.77097 -1 ft 20 kts 33°
2026-04-27 07:42 52.31411 4.77197 -1 ft 19 kts 357°
2026-04-27 07:42 52.31544 4.77185 -1 ft 17 kts 329°
2026-04-27 07:42 52.31566 4.77018 -1 ft 14 kts 265°
2026-04-27 07:42 52.31559 4.76858 -1 ft 13 kts 266°
2026-04-27 07:43 52.31553 4.76718 -1 ft 11 kts 266°
2026-04-27 07:43 52.31547 4.76598 -1 ft 10 kts 266°
2026-04-27 07:43 52.31544 4.76477 -1 ft 16 kts 268°
2026-04-27 07:43 52.31539 4.76239 -1 ft 23 kts 267°
2026-04-27 07:44 52.31530 4.75987 -1 ft 21 kts 266°
2026-04-27 07:44 52.31522 4.75753 -1 ft 20 kts 266°
2026-04-27 07:44 52.31515 4.75533 -1 ft 19 kts 266°
2026-04-27 07:44 52.31508 4.75334 -1 ft 17 kts 267°
2026-04-27 07:45 52.31502 4.75157 -1 ft 15 kts 267°
2026-04-27 07:45 52.31497 4.75005 -1 ft 12 kts 267°
2026-04-27 07:45 52.31492 4.74874 -1 ft 11 kts 266°
2026-04-27 07:45 52.31488 4.74763 -1 ft 9 kts 266°
2026-04-27 07:46 52.31504 4.74679 -1 ft 7 kts 318°
2026-04-27 07:46 52.31548 4.74664 -1 ft 9 kts 354°
2026-04-27 07:46 52.31636 4.74673 0 ft 14 kts 22°
2026-04-27 07:46 52.31670 4.74802 -1 ft 14 kts 90°
2026-04-27 07:47 52.31680 4.75108 -3 ft 56 kts 86°
2026-04-27 07:47 52.31714 4.76107 -1 ft 118 kts 86°
2026-04-27 07:47 52.31770 4.77726 18 ft 163 kts 85°
2026-04-27 07:47 52.31847 4.79558 635 ft 161 kts 84°
2026-04-27 07:48 52.32332 4.81163 1237 ft 165 kts 37°
2026-04-27 07:48 52.33486 4.81624 1573 ft 185 kts 349°
2026-04-27 07:48 52.34743 4.80818 1870 ft 206 kts 337°
2026-04-27 07:48 52.36175 4.79937 2130 ft 229 kts 344°
2026-04-27 07:49 52.37672 4.79235 3101 ft 221 kts 346°
2026-04-27 07:49 52.39089 4.78209 3756 ft 231 kts 324°
2026-04-27 07:49 52.40368 4.76403 4105 ft 254 kts 318°
2026-04-27 07:49 52.41661 4.74351 4795 ft 262 kts 316°
2026-04-27 07:50 52.42954 4.72226 5598 ft 265 kts 316°
2026-04-27 07:50 52.44256 4.70069 6417 ft 267 kts 315°
2026-04-27 07:50 52.45496 4.67833 7160 ft 271 kts 305°
2026-04-27 07:50 52.46351 4.65070 7899 ft 274 kts 288°
2026-04-27 07:51 52.46661 4.61993 8664 ft 277 kts 271°
2026-04-27 07:51 52.46680 4.58813 9413 ft 280 kts 269°
2026-04-27 07:51 52.46344 4.55654 10122 ft 285 kts 251°
2026-04-27 07:51 52.45398 4.52777 10727 ft 294 kts 233°
2026-04-27 07:52 52.43838 4.50401 10872 ft 320 kts 214°
2026-04-27 07:52 52.41953 4.48299 11105 ft 336 kts 223°
2026-04-27 07:52 52.40450 4.45335 11679 ft 339 kts 238°
2026-04-27 07:52 52.39321 4.41934 12365 ft 341 kts 245°
2026-04-27 07:53 52.38359 4.38379 13080 ft 342 kts 248°
2026-04-27 07:53 52.37417 4.34783 13799 ft 343 kts 247°
2026-04-27 07:53 52.36434 4.31218 14442 ft 345 kts 246°
2026-04-27 07:53 52.35379 4.27668 15033 ft 348 kts 244°
2026-04-27 07:54 52.34268 4.24146 15615 ft 350 kts 243°
2026-04-27 07:54 52.33186 4.20834 16142 ft 353 kts 243°
2026-04-27 07:54 52.32010 4.17297 16709 ft 356 kts 243°
2026-04-27 07:54 52.30634 4.13911 17262 ft 360 kts 233°
2026-04-27 07:55 52.29067 4.10691 17814 ft 363 kts 234°
2026-04-27 07:55 52.27522 4.07476 18352 ft 366 kts 234°
2026-04-27 07:55 52.25955 4.04189 18865 ft 369 kts 234°
2026-04-27 07:55 52.24371 4.00865 19344 ft 371 kts 234°
2026-04-27 07:56 52.22782 3.97533 19847 ft 373 kts 234°
2026-04-27 07:56 52.21183 3.94192 20323 ft 375 kts 235°
2026-04-27 07:56 52.19573 3.90835 20820 ft 377 kts 234°
2026-04-27 07:56 52.17956 3.87464 21318 ft 379 kts 234°
2026-04-27 07:57 52.16323 3.84067 21810 ft 381 kts 234°
2026-04-27 07:57 52.14685 3.80666 22290 ft 383 kts 234°
2026-04-27 07:57 52.13037 3.77250 22755 ft 385 kts 234°
2026-04-27 07:57 52.11378 3.73818 23208 ft 386 kts 234°
2026-04-27 07:58 52.09713 3.70374 23655 ft 388 kts 234°
2026-04-27 07:58 52.08040 3.66916 24046 ft 390 kts 234°
2026-04-27 07:58 52.06355 3.63437 24416 ft 392 kts 234°
2026-04-27 07:58 52.04667 3.59965 24776 ft 393 kts 234°
2026-04-27 07:59 52.02964 3.56468 25129 ft 394 kts 234°
2026-04-27 07:59 51.99545 3.49479 25817 ft 397 kts 234°
2026-04-27 07:59 51.97861 3.45925 26115 ft 398 kts 236°
2026-04-27 08:00 51.96239 3.42354 26438 ft 399 kts 236°
2026-04-27 08:00 51.94596 3.38659 26779 ft 399 kts 237°
2026-04-27 08:00 51.92998 3.35040 27104 ft 400 kts 237°
2026-04-27 08:00 51.91367 3.31370 27427 ft 402 kts 236°
2026-04-27 08:01 51.89723 3.27713 27741 ft 403 kts 236°
2026-04-27 08:01 51.88064 3.24050 28054 ft 404 kts 236°
2026-04-27 08:01 51.86485 3.20289 28351 ft 403 kts 243°
2026-04-27 08:01 51.85310 3.16178 28619 ft 403 kts 252°
2026-04-27 08:02 51.84600 3.11805 28899 ft 403 kts 261°
2026-04-27 08:02 51.84281 3.07297 29161 ft 404 kts 264°
2026-04-27 08:02 51.83997 3.02775 29422 ft 405 kts 264°
2026-04-27 08:02 51.83703 2.98242 29673 ft 406 kts 263°
2026-04-27 08:03 51.83402 2.93690 29924 ft 408 kts 263°
2026-04-27 08:03 51.83096 2.89121 30156 ft 408 kts 263°
2026-04-27 08:03 51.82789 2.84549 30392 ft 409 kts 263°
2026-04-27 08:03 51.82481 2.79973 30586 ft 410 kts 263°
2026-04-27 08:04 51.82173 2.75392 30845 ft 409 kts 263°
2026-04-27 08:04 51.81865 2.70823 31101 ft 408 kts 263°
2026-04-27 08:04 51.81557 2.66267 31343 ft 408 kts 263°
2026-04-27 08:04 51.81246 2.61709 31587 ft 408 kts 263°
2026-04-27 08:05 51.80934 2.57165 31827 ft 407 kts 263°
2026-04-27 08:05 51.80620 2.52617 32075 ft 407 kts 263°
2026-04-27 08:05 51.80303 2.48086 32310 ft 406 kts 263°
2026-04-27 08:05 51.79983 2.43544 32549 ft 406 kts 263°
2026-04-27 08:06 51.79663 2.39013 32764 ft 406 kts 263°
2026-04-27 08:06 51.79345 2.34487 32978 ft 406 kts 263°
2026-04-27 08:06 51.79019 2.29947 33215 ft 406 kts 263°
2026-04-27 08:06 51.78690 2.25420 33417 ft 406 kts 263°
2026-04-27 08:07 51.78363 2.20896 33667 ft 405 kts 263°
2026-04-27 08:07 51.78069 2.16392 33918 ft 404 kts 264°
2026-04-27 08:07 51.77806 2.11877 34160 ft 403 kts 264°
2026-04-27 08:07 51.77562 2.07423 34377 ft 403 kts 264°
2026-04-27 08:08 51.77315 2.02917 34561 ft 403 kts 264°
2026-04-27 08:08 51.77060 1.98415 34732 ft 403 kts 264°
2026-04-27 08:08 51.76795 1.93910 34899 ft 404 kts 264°
2026-04-27 08:08 51.76522 1.89391 35031 ft 405 kts 264°
2026-04-27 08:09 51.76246 1.84863 35168 ft 406 kts 264°
2026-04-27 08:09 51.75965 1.80338 35310 ft 406 kts 264°
2026-04-27 08:09 51.75681 1.75791 35450 ft 407 kts 264°
2026-04-27 08:09 51.75396 1.71247 35590 ft 407 kts 264°
2026-04-27 08:10 51.75111 1.66697 35727 ft 407 kts 264°
2026-04-27 08:10 51.74733 1.62175 35863 ft 408 kts 257°
2026-04-27 08:10 51.73922 1.57788 35992 ft 408 kts 249°
2026-04-27 08:10 51.72846 1.53553 36120 ft 409 kts 249°
2026-04-27 08:11 51.71767 1.49308 36278 ft 408 kts 249°
2026-04-27 08:11 51.70691 1.45060 36326 ft 410 kts 249°
2026-04-27 08:11 51.68533 1.36530 36326 ft 412 kts 249°
2026-04-27 08:12 51.66366 1.27987 36328 ft 412 kts 249°
2026-04-27 08:12 51.64191 1.19453 36328 ft 412 kts 249°
2026-04-27 08:13 51.62008 1.10932 36326 ft 412 kts 248°
2026-04-27 08:13 51.59818 1.02420 36326 ft 412 kts 248°
2026-04-27 08:14 51.57638 0.93964 36321 ft 412 kts 248°
2026-04-27 08:14 51.55430 0.85451 36312 ft 412 kts 248°
2026-04-27 08:15 51.53216 0.76938 36312 ft 413 kts 248°
2026-04-27 08:15 51.51001 0.68442 36314 ft 413 kts 248°
2026-04-27 08:16 51.48774 0.59936 36314 ft 413 kts 248°
2026-04-27 08:16 51.46541 0.51448 36316 ft 413 kts 248°
2026-04-27 08:17 51.44300 0.42963 36314 ft 413 kts 248°
2026-04-27 08:17 51.42047 0.34474 36312 ft 414 kts 248°
2026-04-27 08:18 51.39787 0.25976 36312 ft 415 kts 248°
2026-04-27 08:18 51.37520 0.17481 36313 ft 415 kts 248°
2026-04-27 08:19 51.35250 0.08980 36313 ft 415 kts 248°
2026-04-27 08:19 51.32986 0.00542 36302 ft 415 kts 247°
2026-04-27 08:20 51.30691 -0.07938 36309 ft 416 kts 247°
2026-04-27 08:20 51.28384 -0.16418 36311 ft 417 kts 247°
2026-04-27 08:21 51.26070 -0.24929 36313 ft 417 kts 247°
2026-04-27 08:21 51.23758 -0.33432 36317 ft 418 kts 247°
2026-04-27 08:22 51.21440 -0.41934 36322 ft 418 kts 247°
2026-04-27 08:22 51.19104 -0.50432 36328 ft 418 kts 246°
2026-04-27 08:23 51.16759 -0.58915 36332 ft 418 kts 246°
2026-04-27 08:23 51.14409 -0.67401 36334 ft 419 kts 246°
2026-04-27 08:24 51.12125 -0.75612 36345 ft 419 kts 246°
2026-04-27 08:24 51.10285 -0.82216 36344 ft 419 kts 246°
2026-04-27 08:25 51.07915 -0.90683 36334 ft 418 kts 246°
2026-04-27 08:25 51.05151 -1.00510 36317 ft 419 kts 246°
2026-04-27 08:26 51.03156 -1.07605 36314 ft 420 kts 246°
2026-04-27 08:26 51.00766 -1.16083 36291 ft 421 kts 246°
2026-04-27 08:27 50.98376 -1.24508 36290 ft 422 kts 246°
2026-04-27 08:27 50.95572 -1.32662 36292 ft 423 kts 233°
2026-04-27 08:28 50.91251 -1.38977 36291 ft 426 kts 215°
2026-04-27 08:28 50.86293 -1.44114 36279 ft 427 kts 215°
2026-04-27 08:29 50.81322 -1.49285 36293 ft 428 kts 215°
2026-04-27 08:29 50.76341 -1.54444 36299 ft 428 kts 214°
2026-04-27 08:30 50.71387 -1.59562 36301 ft 428 kts 215°
2026-04-27 08:30 50.66399 -1.64707 36231 ft 428 kts 214°
2026-04-27 08:31 50.63913 -1.67263 35975 ft 427 kts 214°
2026-04-27 08:31 50.61436 -1.69805 35734 ft 424 kts 214°
2026-04-27 08:31 50.58971 -1.72330 35482 ft 421 kts 214°
2026-04-27 08:31 50.56518 -1.74841 35293 ft 420 kts 215°
2026-04-27 08:32 50.51627 -1.79839 35315 ft 419 kts 214°
2026-04-27 08:32 50.46733 -1.84832 35318 ft 419 kts 214°
2026-04-27 08:33 50.41816 -1.89836 35316 ft 422 kts 214°
2026-04-27 08:33 50.36905 -1.94831 35313 ft 420 kts 214°
2026-04-27 08:34 50.31992 -1.99801 35314 ft 420 kts 214°
2026-04-27 08:34 50.27141 -2.04702 35314 ft 420 kts 214°
2026-04-27 08:35 50.22228 -2.09628 35312 ft 420 kts 214°
2026-04-27 08:35 50.17300 -2.14424 35301 ft 420 kts 213°
2026-04-27 08:36 50.12339 -2.19215 35309 ft 419 kts 213°
2026-04-27 08:36 50.07389 -2.23999 35313 ft 418 kts 213°
2026-04-27 08:37 50.02449 -2.28780 35317 ft 418 kts 213°
2026-04-27 08:37 49.97503 -2.33568 35300 ft 419 kts 213°
2026-04-27 08:38 49.92550 -2.38344 35293 ft 419 kts 213°
2026-04-27 08:38 49.87589 -2.43110 35291 ft 419 kts 213°
2026-04-27 08:39 49.82664 -2.47833 35292 ft 419 kts 213°
2026-04-27 08:39 49.77708 -2.52588 35294 ft 419 kts 213°
2026-04-27 08:40 49.72757 -2.57324 35291 ft 418 kts 213°
2026-04-27 08:40 49.67801 -2.62048 35296 ft 418 kts 213°
2026-04-27 08:41 49.62859 -2.66754 35294 ft 417 kts 213°
2026-04-27 08:41 49.57929 -2.71444 35289 ft 417 kts 212°
2026-04-27 08:42 49.52983 -2.76117 35276 ft 417 kts 212°
2026-04-27 08:42 49.48030 -2.80782 35264 ft 417 kts 212°
2026-04-27 08:43 49.43078 -2.85443 35272 ft 417 kts 212°
2026-04-27 08:43 49.38126 -2.90103 35272 ft 417 kts 212°
2026-04-27 08:44 49.33169 -2.94749 35269 ft 417 kts 212°
2026-04-27 08:44 49.28208 -2.99389 35269 ft 417 kts 212°
2026-04-27 08:45 49.23284 -3.03977 35279 ft 417 kts 212°
2026-04-27 08:45 49.18330 -3.08590 35280 ft 416 kts 212°
2026-04-27 08:46 49.13380 -3.13189 35270 ft 416 kts 212°
2026-04-27 08:46 49.08421 -3.17778 35264 ft 417 kts 212°
2026-04-27 08:47 49.03460 -3.22361 35257 ft 417 kts 212°
2026-04-27 08:47 48.98498 -3.26942 35251 ft 417 kts 212°
2026-04-27 08:48 48.93536 -3.31510 35245 ft 417 kts 212°
2026-04-27 08:48 48.88572 -3.36068 35239 ft 417 kts 212°
2026-04-27 08:49 48.83610 -3.40618 35236 ft 416 kts 211°
2026-04-27 08:49 48.78679 -3.45121 35234 ft 416 kts 211°
2026-04-27 08:50 48.73712 -3.49642 35244 ft 417 kts 211°
2026-04-27 08:50 48.68727 -3.54170 35230 ft 418 kts 211°
2026-04-27 08:51 48.63726 -3.58703 35225 ft 419 kts 211°
2026-04-27 08:51 48.58713 -3.63229 35225 ft 420 kts 211°
2026-04-27 08:52 48.53706 -3.67756 35231 ft 419 kts 211°
2026-04-27 08:52 48.48699 -3.72266 35236 ft 419 kts 211°
2026-04-27 08:53 48.43721 -3.76735 35236 ft 419 kts 211°
2026-04-27 08:53 48.38714 -3.81231 35234 ft 419 kts 211°
2026-04-27 08:54 48.33699 -3.85720 35234 ft 419 kts 211°
2026-04-27 08:54 48.28678 -3.90191 35235 ft 420 kts 211°
2026-04-27 08:55 48.23643 -3.94667 35216 ft 421 kts 211°
2026-04-27 08:55 48.18632 -3.99119 35212 ft 422 kts 211°
2026-04-27 08:56 48.13579 -4.03597 35205 ft 422 kts 211°
2026-04-27 08:56 48.08523 -4.08072 35212 ft 422 kts 211°
2026-04-27 08:57 48.00936 -4.14767 35220 ft 422 kts 211°
2026-04-27 08:58 47.95872 -4.19218 35222 ft 422 kts 211°
2026-04-27 08:58 47.90809 -4.23657 35227 ft 422 kts 211°
2026-04-27 08:59 47.85748 -4.28077 35216 ft 422 kts 211°
2026-04-27 08:59 47.80678 -4.32517 35209 ft 423 kts 212°
2026-04-27 09:00 47.75675 -4.37121 35206 ft 423 kts 213°
2026-04-27 09:00 47.70700 -4.41802 35201 ft 423 kts 213°
2026-04-27 09:01 47.65748 -4.46418 35211 ft 423 kts 213°
2026-04-27 09:01 47.60752 -4.51030 35214 ft 423 kts 213°
2026-04-27 09:02 47.55759 -4.55608 35215 ft 423 kts 212°
2026-04-27 09:02 47.50757 -4.60184 35214 ft 422 kts 212°
2026-04-27 09:03 47.45761 -4.64756 35213 ft 421 kts 213°
2026-04-27 09:03 47.40779 -4.69313 35225 ft 421 kts 213°
2026-04-27 09:04 47.35802 -4.73845 35227 ft 420 kts 213°
2026-04-27 09:04 47.30818 -4.78377 35226 ft 420 kts 213°
2026-04-27 09:05 47.25879 -4.82851 35224 ft 419 kts 213°
2026-04-27 09:05 47.20879 -4.87364 35231 ft 418 kts 213°
2026-04-27 09:06 47.15955 -4.91812 35232 ft 418 kts 213°
2026-04-27 09:06 47.11006 -4.96281 35236 ft 418 kts 213°
2026-04-27 09:07 47.06035 -5.00750 35207 ft 419 kts 213°
2026-04-27 09:07 47.01074 -5.05212 35218 ft 418 kts 213°
2026-04-27 09:08 46.96112 -5.09679 35226 ft 418 kts 213°
2026-04-27 09:08 46.91154 -5.14131 35227 ft 418 kts 213°
2026-04-27 09:09 46.86190 -5.18561 35229 ft 418 kts 213°
2026-04-27 09:09 46.81233 -5.22992 35231 ft 417 kts 213°
2026-04-27 09:10 46.76282 -5.27395 35240 ft 416 kts 213°
2026-04-27 09:10 46.71359 -5.31746 35229 ft 417 kts 213°
2026-04-27 09:11 46.66390 -5.36136 35220 ft 418 kts 213°
2026-04-27 09:11 46.61413 -5.40540 35218 ft 419 kts 213°
2026-04-27 09:12 46.56436 -5.44950 35220 ft 420 kts 213°
2026-04-27 09:12 46.51441 -5.49355 35224 ft 420 kts 213°
2026-04-27 09:13 46.46441 -5.53757 35227 ft 420 kts 213°
2026-04-27 09:13 46.42248 -5.57433 35213 ft 420 kts 213°
2026-04-27 09:14 46.37254 -5.61810 35236 ft 419 kts 213°
2026-04-27 09:14 46.32259 -5.66173 35225 ft 420 kts 213°
2026-04-27 09:15 46.27247 -5.70532 35219 ft 421 kts 213°
2026-04-27 09:15 46.22231 -5.74898 35209 ft 421 kts 213°
2026-04-27 09:16 46.17247 -5.79239 35223 ft 421 kts 213°
2026-04-27 09:16 46.12226 -5.83576 35229 ft 421 kts 213°
2026-04-27 09:17 46.07202 -5.87907 35236 ft 421 kts 213°
2026-04-27 09:17 46.02173 -5.92246 35240 ft 421 kts 213°
2026-04-27 09:18 45.97144 -5.96567 35231 ft 421 kts 213°
2026-04-27 09:18 45.92109 -6.00891 35233 ft 422 kts 213°
2026-04-27 09:19 45.87067 -6.05219 35242 ft 422 kts 213°
2026-04-27 09:19 45.82023 -6.09535 35240 ft 422 kts 213°